Location: Moscow
(55.7500°N, 37.5830°E)
Time: 10:44:15
(UTC+03:00)

Vanguard 3 - Pass Details

Date: 09 December 2021
Orbit: 508 x 3260 km, 33.3° (Epoch: 19 January)

Event Time Altitude Azimuth Distance (km) Brightness Sun altitude
Rises 01:11:45 0° 195° (SSW) 6,403 - -55.8°
Reaches altitude 10° 01:17:36 10° 180° (S) 5,759 - -55.5°
Maximum altitude 01:28:49 20° 143° (SE) 5,337 - -54.8°
Exits shadow 01:32:19 19° 130° (SE) 5,451 11.1 -54.6°
Drops below altitude 10° 01:40:36 10° 105° (ESE) 6,121 11.6 -54.0°
Sets 01:47:02 0° 92° (E) 6,926 12.2 -53.5°
